(314155) = 2005 EN281

Discovered at Anderson Mesa on 2005-03-10 by LONEOS.

Orbit

Orbit type: Main Belt

Note: WebGL enabled browser required.

epoch2023-09-13.0
epoch JD2460200.5
perihelion date2023-01-17.77815
perihelion JD2459962.27815
argument of perihelion (°)99.87935
ascending node (°)77.43723
inclination (°)5.79786
eccentricity0.1056470
perihelion distance (AU)2.0863306
Tisserand w.r.t. Jupiter3.6
ΔV w.r.t. Earth (km/sec)9.1
semimajor axis (AU)2.3327820
mean anomaly (°)65.89830
mean daily motion (°/day)0.27662580
aphelion distance (AU)2.579
period (years)3.56
P-vector [x]-0.99398447
P-vector [y]0.00236111
P-vector [z]0.10949561
Q-vector [x]-0.04767397
Q-vector [y]-0.90940649
Q-vector [z]-0.41316708
absolute magnitude17.41
phase slope0.15
uncertainty0
referenceMPO 779242
observations used364
oppositions13
arc length (days)7173
first opposition used2003
last opposition used2023
residual rms (arc-secs)0.69
perturbers coarse indicatorM-v
perturbers precise indicator003Ek
first observation date used2003-10-20.0
last observation date used2023-06-10.0
computer nameMPCLINUX
JD of orbit computation2456966.721819
perihelion JD uncertainty (days)7.7554E-05
argument of perihelion uncertainty (°)5.5821E-05
ascending node uncertainty (°)5.1843E-05
inclination uncertainty (°)4.4916E-06
eccentricity uncertainty 6.2335E-08
perihelion distance uncertainty (AU)1.4636E-07
Minimum Orbit Intersection Distances (in AU)
for orbit epoch: 2460200.5, reference: E2023-V65
Mercury1.67966
Venus1.36733
Earth1.09795
Mars0.44751
Jupiter2.39168
Saturn6.67843
Uranus16.3623
Neptune27.2889

Observations

371 total observations over interval: 2003 10 20.34975 – 2023 06 10.259772
These data are available for download (format description).

Date (UT) J2000 RA J2000 Dec Magn Location Ref
2003 10 20.34975 01 53 14.59 +03 44 55.9 20.9 V 691 – Steward Observatory, Kitt Peak-Spacewatch MPS 130295
2003 10 20.37777 01 53 12.83 +03 44 48.8 21.0 V 691 – Steward Observatory, Kitt Peak-Spacewatch MPS 130295
2003 10 20.40620 01 53 11.07 +03 44 41.8 20.7 V 691 – Steward Observatory, Kitt Peak-Spacewatch MPS 130295
2003 10 27.26123 01 46 17.01 +03 17 54.9 21.6 V 291 – LPL/Spacewatch II MPS 130295
2003 10 27.26543 01 46 16.71 +03 17 54.0 21.6 V 291 – LPL/Spacewatch II MPS 130295
2003 10 27.26984 01 46 16.46 +03 17 53.6 21.6 V 291 – LPL/Spacewatch II MPS 130295
2003 10 27.31474 01 46 13.68 +03 17 43.3 22.3 V 291 – LPL/Spacewatch II MPS 130295
2003 10 27.31836 01 46 13.45 +03 17 42.8 21.8 V 291 – LPL/Spacewatch II MPS 130295
2003 10 27.32211 01 46 13.20 +03 17 41.7 21.7 V 291 – LPL/Spacewatch II MPS 130295
2005 03 10.32392 12 02 57.85 +11 35 58.5 19.6 R 699 – Lowell Observatory-LONEOS MPS 130295
2005 03 10.34339 12 02 56.75 +11 36 06.1   699 – Lowell Observatory-LONEOS MPS 130295
2005 03 10.36284 12 02 55.63 +11 36 14.6   699 – Lowell Observatory-LONEOS MPS 130295
2005 03 10.38232 12 02 54.55 +11 36 20.0   699 – Lowell Observatory-LONEOS MPS 130295
2005 03 16.33252 11 57 25.21 +12 12 11.8 19.0 R 703 – Catalina Sky Survey MPS 130295
2005 03 16.34193 11 57 24.72 +12 12 15.7 18.8 R 703 – Catalina Sky Survey MPS 130295
2005 03 16.35151 11 57 24.11 +12 12 18.5 19.1 R 703 – Catalina Sky Survey MPS 130295
2005 03 16.36093 11 57 23.51 +12 12 22.2 19.0 R 703 – Catalina Sky Survey MPS 130295
2005 03 16.41014 11 57 20.64 +12 12 37.9 18.9   704 – Lincoln Laboratory ETS, New Mexico MPS 130295
2005 03 16.43341 11 57 19.32 +12 12 46.0 19.6   704 – Lincoln Laboratory ETS, New Mexico MPS 130295
2005 03 16.44576 11 57 18.53 +12 12 49.7 19.4   704 – Lincoln Laboratory ETS, New Mexico MPS 130295
2005 03 16.45729 11 57 17.82 +12 12 52.7 19.0   704 – Lincoln Laboratory ETS, New Mexico MPS 130295
2005 03 17.30033 11 56 30.42 +12 17 32.2 19.2 C 704 – Lincoln Laboratory ETS, New Mexico MPS 293198
2005 03 17.31125 11 56 29.84 +12 17 35.0 19.1 C 704 – Lincoln Laboratory ETS, New Mexico MPS 293198
2005 03 17.32278 11 56 29.07 +12 17 39.4 19.5 C 704 – Lincoln Laboratory ETS, New Mexico MPS 293198
2005 03 30.28727 11 44 35.58 +13 10 34.8 18.9 R 703 – Catalina Sky Survey MPS 130295
2005 03 30.29658 11 44 35.00 +13 10 35.7 19.2 R 703 – Catalina Sky Survey MPS 130295
2005 03 30.30590 11 44 34.47 +13 10 38.4 19.3 R 703 – Catalina Sky Survey MPS 130295
2005 03 30.31520 11 44 33.95 +13 10 40.4 19.2 R 703 – Catalina Sky Survey MPS 130295
2007 11 13.47670 05 45 57.13 +22 34 01.1 20.6 V 691 – Steward Observatory, Kitt Peak-Spacewatch MPS 228286
2007 11 13.49783 05 45 56.42 +22 34 03.6 20.7 V 691 – Steward Observatory, Kitt Peak-Spacewatch MPS 228286
2007 11 13.51895 05 45 55.69 +22 34 06.2 20.6 V 691 – Steward Observatory, Kitt Peak-Spacewatch MPS 228286
2007 11 17.43114 05 43 32.67 +22 42 28.9 21.6 V 691 – Steward Observatory, Kitt Peak-Spacewatch MPS 228286
2007 11 17.44878 05 43 31.92 +22 42 31.5 21.5 V 691 – Steward Observatory, Kitt Peak-Spacewatch MPS 228286
2007 11 17.46642 05 43 31.19 +22 42 33.6 20.8 V 691 – Steward Observatory, Kitt Peak-Spacewatch MPS 228286
2007 11 18.32619 05 42 55.88 +22 44 25.0 20.5 R 734 – Farpoint Observatory, Eskridge MPS 228286
2007 11 18.33505 05 42 55.48 +22 44 25.1 20.7 R 734 – Farpoint Observatory, Eskridge MPS 228286
2007 11 18.34278 05 42 55.18 +22 44 26.2 20.6 R 734 – Farpoint Observatory, Eskridge MPS 228286
2007 11 18.34941 05 42 54.85 +22 44 27.5 20.8 R 734 – Farpoint Observatory, Eskridge MPS 228286
2008 01 12.28468 04 48 21.88 +24 14 11.0 20.5 V G96 – Mt. Lemmon Survey MPS 234254
2008 01 12.29014 04 48 21.67 +24 14 11.5 20.2 V G96 – Mt. Lemmon Survey MPS 234254
2008 01 12.29565 04 48 21.45 +24 14 11.9 20.5 V G96 – Mt. Lemmon Survey MPS 234254
2008 01 12.30118 04 48 21.27 +24 14 12.2 20.4 V G96 – Mt. Lemmon Survey MPS 234254
2008 02 12.19456 04 47 39.73 +25 03 15.8 21.0 V G96 – Mt. Lemmon Survey MPS 237538
2008 02 12.20348 04 47 40.02 +25 03 17.1 20.6 V G96 – Mt. Lemmon Survey MPS 237538
2008 02 12.21240 04 47 40.23 +25 03 18.8 21.2 V G96 – Mt. Lemmon Survey MPS 237538
2008 02 12.22139 04 47 40.52 +25 03 19.4 20.3 V G96 – Mt. Lemmon Survey MPS 237538
2010 09 27.431961 01 11 04.527 -01 48 00.89 20.68 i F51 – Pan-STARRS 1, Haleakala MPS 365514
2010 09 27.443269 01 11 03.895 -01 48 04.25 20.53 i F51 – Pan-STARRS 1, Haleakala MPS 365514
2010 10 09.28946 00 59 48.91 -02 49 55.5 20.3 V G96 – Mt. Lemmon Survey MPS 351186
2010 10 09.29629 00 59 48.51 -02 49 57.6 21.1 V G96 – Mt. Lemmon Survey MPS 351186
2010 10 09.30322 00 59 48.12 -02 49 59.5 20.4 V G96 – Mt. Lemmon Survey MPS 351186
2010 10 09.31014 00 59 47.68 -02 50 01.7 20.7 V G96 – Mt. Lemmon Survey MPS 351186
2010 10 11.34484 00 57 48.70 -02 59 30.5 20.6 V G96 – Mt. Lemmon Survey MPS 351186
2010 10 11.35119 00 57 48.27 -02 59 32.4 19.9 V G96 – Mt. Lemmon Survey MPS 351186
2010 10 11.35757 00 57 47.91 -02 59 34.0 20.9 V G96 – Mt. Lemmon Survey MPS 351186
2010 10 11.36402 00 57 47.55 -02 59 36.1 20.4 V G96 – Mt. Lemmon Survey MPS 351186
2011 12 26.50616 10 39 27.36 +15 46 58.8 21.2 V G96 – Mt. Lemmon Survey MPS 404652
2011 12 26.51190 10 39 27.54 +15 46 59.5 21.0 V G96 – Mt. Lemmon Survey MPS 404652
2011 12 26.51763 10 39 27.68 +15 47 00.0 21.3 V G96 – Mt. Lemmon Survey MPS 404652
2011 12 26.52344 10 39 27.90 +15 47 00.3 20.9 V G96 – Mt. Lemmon Survey MPS 404652
2012 01 21.44729 10 43 31.471 +17 34 06.36 20.7 w F51 – Pan-STARRS 1, Haleakala MPS 408792
2012 01 21.46139 10 43 31.203 +17 34 12.09 20.7 w F51 – Pan-STARRS 1, Haleakala MPS 408792
2012 01 21.47550 10 43 30.931 +17 34 17.65 20.7 w F51 – Pan-STARRS 1, Haleakala MPS 408792
2012 01 21.48966 10 43 30.645 +17 34 23.26 20.7 w F51 – Pan-STARRS 1, Haleakala MPS 408792
2012 01 30.33876 10 39 43.89 +18 37 24.9 19.0 R H15 – ISON-NM Observatory, Mayhill MPS 410150
2012 01 30.35258 10 39 43.22 +18 37 31.1 19.2 R H15 – ISON-NM Observatory, Mayhill MPS 410150
2012 01 30.36644 10 39 42.76 +18 37 36.9 19.3 R H15 – ISON-NM Observatory, Mayhill MPS 410150
2012 01 30.36829 10 39 42.73 +18 37 39.3 19.5 V 703 – Catalina Sky Survey MPS 410150
2012 01 30.37646 10 39 42.40 +18 37 41.1 20.4 V 703 – Catalina Sky Survey MPS 410150
2012 01 30.38039 10 39 42.22 +18 37 43.3 19.2 R H15 – ISON-NM Observatory, Mayhill MPS 410150
2012 01 30.38469 10 39 42.04 +18 37 45.8 19.6 V 703 – Catalina Sky Survey MPS 410150
2012 01 30.39287 10 39 41.79 +18 37 49.6 20.0 V 703 – Catalina Sky Survey MPS 410150
2012 02 01.56067 10 38 23.111 +18 54 29.26 20.4 g F51 – Pan-STARRS 1, Haleakala MPS 410150
2012 02 01.57362 10 38 22.577 +18 54 35.23 20.3 g F51 – Pan-STARRS 1, Haleakala MPS 410150
2012 02 03.60510 10 37 01.378 +19 10 25.36 19.9 r F51 – Pan-STARRS 1, Haleakala MPS 410150
2012 02 03.61655 10 37 00.866 +19 10 30.64 19.9 r F51 – Pan-STARRS 1, Haleakala MPS 410150
2012 02 04.54632 10 36 21.659 +19 17 49.22 20.0 i F51 – Pan-STARRS 1, Haleakala MPS 412955
2012 02 04.55933 10 36 21.057 +19 17 55.31 20.0 i F51 – Pan-STARRS 1, Haleakala MPS 412955
2012 02 14.52996 10 28 02.480 +20 35 40.72 19.7 i F51 – Pan-STARRS 1, Haleakala MPS 412955
2012 02 14.54343 10 28 01.696 +20 35 46.69 19.7 i F51 – Pan-STARRS 1, Haleakala MPS 412955
2012 02 18.22387 10 24 32.00 +21 02 44.6 20.2 V 703 – Catalina Sky Survey MPS 414112
2012 02 18.23111 10 24 31.60 +21 02 47.8 19.6 V 703 – Catalina Sky Survey MPS 414112
2012 02 18.23841 10 24 31.14 +21 02 49.6 19.5 V 703 – Catalina Sky Survey MPS 414112
2012 02 18.24580 10 24 30.67 +21 02 53.9 19.6 V 703 – Catalina Sky Survey MPS 414112
2012 03 23.20722 09 56 57.12 +22 56 49.7 20.3 V G96 – Mt. Lemmon Survey MPS 418376
2012 03 23.21528 09 56 56.90 +22 56 49.3 20.2 V G96 – Mt. Lemmon Survey MPS 418376
2012 03 23.22336 09 56 56.68 +22 56 48.9 20.2 V G96 – Mt. Lemmon Survey MPS 418376
2012 03 23.23146 09 56 56.47 +22 56 48.4 20.4 V G96 – Mt. Lemmon Survey MPS 418376
2013 07 14.48921 21 21 33.453 -22 57 40.22 20.9 w F51 – Pan-STARRS 1, Haleakala MPS 472593
2013 07 14.50526 21 21 32.671 -22 57 46.53 20.9 w F51 – Pan-STARRS 1, Haleakala MPS 472593
2013 08 02.40429 21 04 02.844 -24 56 59.30 20.4 w F51 – Pan-STARRS 1, Haleakala MPS 473631
